Location: Foxtrotter Observatory
(29.3381°N, 82.2844°W)
Time: 00:46:35
(UTC-05:00)

Tiangong 2 - Visible Passes

Search period start: 19 January 2018 00:00
Search period end: 29 January 2018 00:00
Orbit: 384 x 390 km, 42.8° (Epoch: 18 January)

Date Brightness Start Highest point End Pass type
(mag) Time Alt. Az. Time Alt. Az. Time Alt. Az.
19 Jan 3.1 05:48:16 20° NNE 05:48:16 20° NNE 05:49:39 10° NE visible
20 Jan 3.3 06:24:55 13° NNW 06:25:13 13° NNW 06:26:45 10° NNE visible
27 Jan 3.8 06:02:37 10° N 06:03:05 10° NNE 06:03:33 10° NNE visible
28 Jan 3.1 06:39:03 10° NNW 06:41:36 22° NNE 06:44:10 10° ENE visible
